Location: Eaton Estates
(41.3089°N, 82.0057°W)
Time: 06:52:14
(UTC+00:00)

DELTA 2 DEB (DPAF) - Pass Details

Date: 17 June 2021
Orbit: 639 x 645 km, 98.4° (Epoch: 27 July)

Event Time Altitude Azimuth Distance (km) Brightness Sun altitude
Exits shadow 08:02:51 16° 168° (SSE) 1,671 5.9 -16.1°
Maximum altitude 08:06:23 85° 255° (WSW) 653 4.1 -15.7°
Drops below altitude 10° 08:10:52 10° 346° (NNW) 2,048 7.2 -15.2°
Sets 08:13:05 0° 347° (NNW) 2,962 8.1 -15.0°
